STARLINK-5290 (54157 NORAD) Tracking and Keplerian Element Data

This shows tracking and keplerian element data for the satellite.

Feedback or suggestion? Click here.




ElementValue
Catalog54157
NameSTARLINK-5290
Epoch Orbit383
Epoch Day325.25001157
Epoch Year2022
RAAN24.4557
Inclination53.2175
Eccentricity0.0001653
Argument of Perigee41.3336
Mean Anonmoly166.6676
Mean Motion15.57889532
Decay Rate-0.01211537
L11 54157U 22141A 22325.25001157 -.01211537 00000+0 -17769-1 0 9999
L22 54157 53.2175 24.4557 0001653 41.3336 166.6676 15.57889532 3834



Live tracking and technical data element details for STARLINK-5290 (NORAD 54157). STARLINK-5290 can be tracked NOW for your location showing map with azimuth and elevation plus other details from your city location.







IsCatalogInMostPopularTable: catalog: 54157, numindb: 7
Update: records affected: 1



GetName: 54157 STARLINK-5290

Hit Count: updated at: Mon, 28 Nov 2022 22:37:36 GMT